• Join FlightAware (Why Join?)
  • Login
  • US Flag GB Flag 
16:04 EST


 

Airport Tracker/Info


-or-


 

Live Flight TrackerFlight Track Log ✈ JBU1329 ✈ 28-Apr-2013 ✈ KBOS - KBWI

Flight Track Log - Related Links

Times and Time Zones

All times are in EDT time to prevent confusion due to time zone crossing. See the JBU1329 flight status page for this flight to view local times or setup timezone preferences in your user account.

Time Position Orientation Groundspeed Altitude Reporting Facility
EDT Latitude Longitude Course Direction KTS MPH feet Rate Location/Type
08:14 42.3500 -70.9833 240° Southwest 146 168 1,400  Level KA90
08:16 42.3924 -70.7424 144° Southeast  Level FlightAware Approximate
08:16 42.3322 -70.7972 97° East 227 261 8,000  Level Boston Center
08:17 42.3020 -70.7171 172° South  Level FlightAware Approximate
08:17 42.2811 -70.7172 131° Southeast 242 278 11,000  Level Boston Center
08:18 42.2388 -70.8084 228° Southwest  Level FlightAware Approximate
08:18 42.1922 -70.7644 201° Southwest 227 261 13,400  Level Boston Center
08:19 42.2048 -70.8834 240° Southwest  Level FlightAware Approximate
08:19 42.1650 -70.9136 256° West 255 293 16,900  Level Boston Center
08:20 42.1458 -71.0344 258° West 321 369 18,800 2,100 Climbing Boston Center
08:21 42.1078 -71.1725 250° West 362 417 21,100 2,520 Climbing Boston Center
08:22 42.0572 -71.3217 246° West 401 461 23,900 2,280 Climbing Boston Center
08:23 42.0106 -71.4622 246° West 406 467 25,700 1,620 Climbing Boston Center
08:24 41.9658 -71.5858 244° Southwest 412 474 27,200 1,560 Climbing Boston Center
08:25 41.9189 -71.7314 247° West 423 487 28,900 1,740 Climbing Boston Center
08:26 41.8594 -71.9050 245° Southwest 423 487 31,100 1,380 Climbing Boston Center
08:27 41.8119 -72.0472 246° West 423 487 32,000 420 Climbing Boston Center
08:28 41.7625 -72.1925 246° West 423 487 32,000  Level Boston Center
08:29 41.7125 -72.3400 246° West 423 487 32,000  Level Boston Center
08:30 41.6647 -72.4844 246° West 423 487 32,000  Level Boston Center
08:31 41.6125 -72.6317 245° Southwest 423 487 32,000  Level Boston Center
08:32 41.5600 -72.7897 246° West 428 493 32,000  Level Boston Center
08:33 41.5158 -72.9142 245° Southwest 420 483 32,000  Level Boston Center
08:34 41.4650 -73.0578 245° Southwest 420 483 32,000  Level Boston Center
08:35 41.4161 -73.2042 246° West 425 489 32,000  Level Boston Center
08:36 41.3650 -73.3500 245° Southwest 425 489 32,000  Level Boston Center
08:38 41.2453 -73.6492 242° Southwest 436 502 32,000  Level New York Center
08:39 41.1714 -73.7756 232° Southwest 441 507 32,000  Level New York Center
08:40 41.0953 -73.8961 230° Southwest 441 507 32,000 -360 Level New York Center
08:41 41.0231 -74.0219 233° Southwest 436 502 31,400 -900 Descending New York Center
08:42 40.9489 -74.1447 231° Southwest 431 496 30,300 -1,140 Descending New York Center
08:43 40.8681 -74.2725 230° Southwest 436 502 29,100 -1,200 Descending New York Center
08:44 40.7914 -74.4000 232° Southwest 446 513 28,000 -1,020 Descending New York Center
08:45 40.7167 -74.5219 231° Southwest 446 513 27,100 -960 Descending New York Center
08:46 40.6419 -74.6436 231° Southwest 441 507 26,100 -780 Descending New York Center
08:47 40.5692 -74.7625 231° Southwest 436 502 25,600 -900 Descending New York Center
08:48 40.4881 -74.8778 227° Southwest 436 502 24,400 -1,200 Descending New York Center
08:49 40.4092 -74.9878 227° Southwest 436 502 23,200 -1,200 Descending New York Center
08:50 40.3322 -75.0972 227° Southwest 424 488 22,000 -1,200 Descending New York Center
08:51 40.2575 -75.2042 228° Southwest 419 482 20,800 -1,260 Descending New York Center
08:52 40.1889 -75.3031 228° Southwest 419 482 19,600 -1,200 Descending New York Center
08:53 40.1100 -75.4039 224° Southwest 412 474 18,500 -840 Descending New York Center
08:54 40.0283 -75.5175 227° Southwest 401 461 18,000 -300 Descending New York Center
08:55 39.9556 -75.6183 227° Southwest 396 456 18,000  Level New York Center
08:56 39.8906 -75.7247 231° Southwest 390 449 18,000 -480 Level New York Center
08:57 39.8317 -75.8367 236° Southwest 383 441 17,100 -1,740 Descending New York Center
08:59 39.7167 -76.0500 235° Southwest 354 407 13,000 -1,800 Descending Potomac TRACON
09:00 39.6667 -76.1500 237° Southwest 349 402 12,000 -900 Descending Potomac TRACON
09:01 39.6167 -76.2333 232° Southwest 341 392 11,400 -900 Descending Potomac TRACON
09:02 39.5667 -76.3500 241° Southwest 332 382 10,300 -780 Descending Potomac TRACON
09:03 39.5167 -76.4500 237° Southwest 301 346 9,800 -1,140 Descending Potomac TRACON
09:04 39.4833 -76.5333 243° Southwest 279 321 8,200 -1,680 Descending Potomac TRACON
09:05 39.4500 -76.6167 243° Southwest 275 316 6,700 -1,560 Descending Potomac TRACON
09:06 39.4167 -76.7000 243° Southwest 267 307 5,100 -1,380 Descending Potomac TRACON
09:07 39.3833 -76.7833 243° Southwest 254 292 4,000 -600 Descending Potomac TRACON
09:08 39.3500 -76.8667 243° Southwest 253 291 4,000  Level Potomac TRACON
09:09 39.3167 -76.9333 237° Southwest 260 299 4,000 -60 Level Potomac TRACON
09:10 39.2500 -76.9167 169° South 248 285 3,900 -480 Descending Potomac TRACON
09:11 39.2167 -76.8667 131° Southeast 227 261 3,100 -960 Descending Potomac TRACON
09:12 39.1833 -76.8000 123° Southeast 192 221 2,100 -1,080 Descending Potomac TRACON
09:13 39.1833 -76.7500 90° East 146 168 1,000 -900 Descending Potomac TRACON
09:14 39.1833 -76.7000 90° East 126 145 400 -720 Descending Potomac TRACON